Regional Weather Roundup
Issued by NWS

Home | Current Version | Previous Version | Graphics & Text | Print | Product List | Glossary On
Versions: 1 2 3 4 5 6 7 8 9 10 11 12 13 14 15 16 17 18 19 20 21 22 23 24 25 26 27
000
ASUS45 KTFX 211810
RWRMT
MONTANA REGIONAL WEATHER ROUNDUP
NATIONAL WEATHER SERVICE GREAT FALLS MT
1100 AM MST SAT JAN 21 2017

NOTE: "FAIR" INDICATES FEW OR NO CLOUDS BELOW 12000 FEET WITH NO
SIGNIFICANT WEATHER AND/OR OBSTRUCTIONS TO VISIBILITY.

MTZ001>007-043-211900-
WEST OF THE DIVIDE

CITY           SKY/WX    TMP DP  RH WIND       PRES   REMARKS
KALISPELL      PTSUNNY   20  17  88 SW5       29.47R
MISSOULA       CLOUDY    22  21  96 CALM      29.51R
BUTTE          CLOUDY    13   9  84 CALM      29.41R
MULLAN PASS    LGT SNOW  23  22  96 S6        29.36R FOG     WCI  16
ANACONDA         N/A     27  14  59 CALM      29.42R
DEER LODGE       N/A     19  12  73 CALM      29.47R
EUREKA           N/A     25  21  86 NW3       29.52R
HAMILTON         N/A     23  19  86 CALM        N/A
PLAINS           N/A     23  19  85 CALM      29.53R
RONAN            N/A     23  20  89 CALM      29.55R
$$

MTZ008-052>055-211900-
SOUTHWEST MONTANA

CITY           SKY/WX    TMP DP  RH WIND       PRES   REMARKS
BOZEMAN        CLOUDY    13   8  81 E6        29.45R WCI   4
DILLON         CLOUDY    26  14  60 S12       29.42R WCI  16
W YELLOWSTONE  MIX PCPN  19  18  93 CALM      29.42R
ENNIS          CLOUDY    28  19  69 CALM      29.45R
TWIN BRIDGES     N/A     18   9  68 E2        29.50R
$$

MTZ009-010-012-014-046-048-049-054-211900-
EAST SLOPES AND CENTRAL MONTANA

CITY           SKY/WX    TMP DP  RH WIND       PRES   REMARKS
CUT BANK       SUNNY     28  21  75 N13       29.42R WCI  17
GREAT FALLS    CLOUDY    26  20  77 SW6       29.42R WCI  19
MALMSTROM AFB  SUNNY     25  20  83 W7        29.44R WCI  17
HELENA         CLOUDY     8   5  87 CALM      29.47R FOG
AUGUSTA          N/A     27  20  76 W3        29.40R
BOWMANS CRNR     N/A     21  16  80 SW8       29.39R WCI  12
CHOTEAU          N/A     25  19  80 W5        29.44R
CONRAD           N/A     28  23  81 W5        29.49R
POWER            N/A     15  13  93 NW3       29.41R
RAYNESFORD     PTSUNNY   31  19  62 W3        29.41R
ULM            PTSUNNY   27  20  76 MISG      29.43R
$$

MTZ011-013-016-021-045-047-050-051-211900-
NORTH CENTRAL MONTANA

CITY           SKY/WX    TMP DP  RH WIND       PRES   REMARKS
HAVRE          SUNNY     22  21  96 W7        29.45R WCI  13
LEWISTOWN      SUNNY     32  20  61 CALM      29.40R
CHINOOK          N/A     27  23  86 W7        29.44S WCI  19
DENTON           N/A     28  21  74 SW8       29.39R WCI  20
FORT BENTON      N/A     28  25  86 MISG      29.46R
GEYSER           N/A     36  21  54 E3        29.39R
GRASS RANGE      N/A     37  23  56 W8        29.36R WCI  31
JUDITH GAP       N/A     30  17  58 CALM      29.39R
ROY              N/A     37  27  69 MISG      29.39R
STANFORD         N/A     35  18  50 CALM      29.39R
WINIFRED         N/A     30  23  77 W9        29.40R WCI  21
$$

MTZ017>020-022>027-061-062-211900-
NORTHEAST MONTANA

CITY           SKY/WX    TMP DP  RH WIND       PRES   REMARKS
GLASGOW        MOSUNNY   18  15  88 W10       29.39R WCI   6
JORDAN           N/A     31  27  85 W7        29.41R WCI  24
SIDNEY         CLOUDY    33  24  69 CALM      29.39R
WOLF POINT     CLOUDY    23  17  78 SW13      29.40R WCI  11
PLENTYWOOD       N/A     30  27  86 NW12      29.35R WCI  21
POPLAR           N/A     25  18  74 CALM      29.40R
SCOBEY           N/A     25  15  65 S2        29.38R
$$

MTZ028>42-056>058-211900-
SOUTHCENTRAL AND SOUTHEAST MONTANA

CITY           SKY/WX    TMP DP  RH WIND       PRES   REMARKS
BAKER          SUNNY     24  21  88 W3        29.40R
BILLINGS       CLOUDY    23  17  78 SW15      29.41R WCI  10
LIVINGSTON     CLOUDY    20  11  68 NW5       29.41R
MILES CITY     FOG       20  17  88 CALM      29.43R VSB 1/4
BIG TIMBER     SUNNY     27  18  69 W7        29.43R WCI  19
EKALAKA          N/A     30  25  82 SW6       29.43R WCI  24
FORSYTH          N/A     18  18 100 CALM      29.43R
HARLOWTON        N/A     25  18  76 W13       29.40R WCI  13
LAUREL           N/A     22  15  74 CALM      29.46R
$$

REGIONAL REPORTS...DAKOTAS

CITY           SKY/WX    TMP DP  RH WIND       PRES   REMARKS
WILLISTON      CLOUDY    31  25  78 W13       29.36R WCI  21
MINOT          CLOUDY    31  27  85 SW6       29.35R FOG     WCI  25
DICKINSON      PTSUNNY   31  25  78 W12       29.33R WCI  22
BEACH            N/A     28  25  86 W14       29.40S WCI  17
CROSBY         CLOUDY    28  28 100 NW8       29.36R WCI  20
TIOGA          CLOUDY    27  27 100 W6        29.35R WCI  20
WATFORD CITY     N/A     32  27  80 W9        29.36R WCI  24
BISMARCK       CLOUDY    31  27  85 W6        29.38F WCI  25
GRAND FORKS    CLOUDY    37  33  85 SE5       29.42S
FARGO          CLOUDY    39  35  86 S3        29.40F
BUFFALO SD       N/A     32  26  78 W9        29.32R WCI  24
RAPID CITY     SUNNY     38  31  76 S5        29.39S
$$

REGIONAL REPORTS...WYOMING/IDAHO/WASHINGTON

CITY           SKY/WX    TMP DP  RH WIND       PRES   REMARKS
GILLETTE       SUNNY     34  28  79 CALM      29.40R
SHERIDAN       SUNNY     28  17  63 CALM      29.40R
BUFFALO WY     SUNNY     34  22  61 CALM      29.39R
CODY           SUNNY     24  12  60 NE3       29.40R
YELLOWSTONE LA   N/A     16  12  84 CALM      29.42R
IDAHO FALLS    CLOUDY    28  25  88 SW6       29.47R WCI  22
SALMON         CLOUDY    18  14  86 CALM      29.52R
BOISE          LGT SNOW  32  31  96 E6        29.55R VSB 3/4 WCI  26
SPOKANE        PTSUNNY   36  30  79 E5        29.44R
$$

REGIONAL REPORTS...ALBERTA

CITY           SKY/WX    TMP DP  RH WIND       PRES   REMARKS
EDMONTON       CLOUDY    18  14  86 NW2       29.54R VSB 1/8
CALGARY        MOSUNNY   23  14  68 CALM      29.46R
LETHBRIDGE     MOSUNNY   25  19  80 W8        29.45R WCI  16
MEDICINE HAT   MOSUNNY   28  25  86 SW6       29.43R WCI  22
WATERTON GATE    N/A     28  16  59 SW7         N/A  WCI  21
CARDSTON         N/A     32  19  59 E1          N/A
MILK RIVER       N/A     27  19  74 W13         N/A  WCI  16
$$

REGIONAL REPORTS...SASKATCHEWAN

CITY           SKY/WX    TMP DP  RH WIND       PRES   REMARKS
SWIFT CURRENT  FRZ RAIN  25  25 100 W12       29.36R VSB 1/8 WCI  14
REGINA         FOG       25  23  93 CALM      29.33S VSB 3/4
SASKATOON      CLOUDY    28  27  93 N8        29.41S FOG     WCI  20
CYPRESS HILLS    N/A     32  21  64 NW7         N/A  WCI  26
VAL MARIE        N/A     25  18  74 S2          N/A
ROCKGLEN         N/A     27  25  93 NW12        N/A  WCI  16
ASSINIBOIA       N/A     16  14  93 NW2         N/A
$$




USA.gov is the U.S. government's official web portal to all federal, state and local government web resources and services.